| time (UTC) | temp F | wind direction | speed MPH | gust MPH | rain 1hr in | rain 24hr in | rain mn in | humidity % | barometer mb |
| 20260507014604 | 41 | 46 | 12.0 | 16.0 | 0.02 | 0.02 | 0.02 | 85 | 1022.8 |
| 20260507013055 | 42 | 46 | 12.0 | 19.0 | 0.01 | 0.01 | 0.01 | 82 | 1022.4 |
| 20260507011554 | 44 | 345 | 12.0 | 20.0 | 0.00 | 0.00 | 0.00 | 78 | 1021.7 |
| 20260507010052 | 46 | 39 | 13.0 | 19.0 | 0.00 | 0.00 | 0.00 | 70 | 1021.3 |
| 20260507004551 | 47 | 54 | 9.0 | 17.0 | 0.00 | 0.00 | 0.00 | 66 | 1021.2 |
| 20260507003051 | 48 | 55 | 15.0 | 21.0 | 0.00 | 0.00 | 0.00 | 65 | 1020.4 |
| 20260507001546 | 49 | 48 | 12.0 | 17.0 | 0.00 | 0.00 | 0.00 | 65 | 1020.1 |
| 20260507000044 | 49 | 44 | 10.0 | 17.0 | 0.00 | 0.00 | 0.00 | 65 | 1019.7 |
| 20260506234542 | 50 | 44 | 10.0 | 17.0 | 0.00 | 0.00 | 0.00 | 64 | 1019.2 |
| 20260506233046 | 51 | 42 | 10.0 | 17.0 | 0.00 | 0.00 | 0.00 | 63 | 1019.0 |
| 20260506231542 | 51 | 360 | 8.0 | 18.0 | 0.00 | 0.00 | 0.00 | 63 | 1018.8 |
| 20260506230041 | 51 | 360 | 14.0 | 22.0 | 0.00 | 0.00 | 0.00 | 63 | 1018.6 |
| 20260506224541 | 52 | 360 | 16.0 | 21.0 | 0.00 | 0.00 | 0.00 | 63 | 1018.2 |
| 20260506223040 | 51 | 360 | 12.0 | 22.0 | 0.00 | 0.00 | 0.00 | 66 | 1018.1 |
| 20260506221539 | 52 | 360 | 15.0 | 24.0 | 0.00 | 0.00 | 0.00 | 65 | 1018.2 |
| 20260506220039 | 52 | 360 | 13.0 | 20.0 | 0.00 | 0.00 | 0.00 | 64 | 1018.4 |
| 20260506214537 | 50 | 51 | 9.0 | 20.0 | 0.00 | 0.00 | 0.00 | 68 | 1018.4 |
| 20260506213037 | 50 | 78 | 9.0 | 21.0 | 0.00 | 0.00 | 0.00 | 70 | 1018.2 |
| 20260506211536 | 50 | 360 | 8.0 | 15.0 | 0.00 | 0.00 | 0.00 | 71 | 1018.4 |
| 20260506210035 | 50 | 71 | 6.0 | 13.0 | 0.00 | 0.00 | 0.00 | 72 | 1018.7 |
| 20260506204535 | 52 | 360 | 11.0 | 16.0 | 0.00 | 0.00 | 0.00 | 73 | 1018.8 |
| 20260506203034 | 49 | 360 | 9.0 | 15.0 | 0.00 | 0.00 | 0.00 | 74 | 1019.1 |
| 20260506201528 | 47 | 360 | 6.0 | 13.0 | 0.00 | 0.00 | 0.00 | 79 | 1019.3 |
| 20260506200026 | 46 | 360 | 6.0 | 11.0 | 0.00 | 0.00 | 0.00 | 81 | 1019.1 |
| 20260506194524 | 45 | 360 | 10.0 | 15.0 | 0.00 | 0.00 | 0.00 | 81 | 1019.1 |
| 20260506193021 | 44 | 360 | 8.0 | 16.0 | 0.00 | 0.00 | 0.00 | 84 | 1019.4 |
| 20260506191520 | 44 | 360 | 9.0 | 14.0 | 0.00 | 0.00 | 0.00 | 85 | 1019.2 |
| 20260506190019 | 43 | 360 | 8.0 | 13.0 | 0.00 | 0.00 | 0.00 | 86 | 1019.4 |
| 20260506184516 | 42 | 360 | 7.0 | 13.0 | 0.00 | 0.00 | 0.00 | 87 | 1019.7 |
| 20260506183014 | 42 | 360 | 7.0 | 13.0 | 0.00 | 0.00 | 0.00 | 89 | 1019.5 |
| 20260506181514 | 42 | 360 | 10.0 | 17.0 | 0.00 | 0.00 | 0.00 | 90 | 1019.3 |
| 20260506180014 | 41 | 360 | 10.0 | 14.0 | 0.00 | 0.00 | 0.00 | 90 | 1019.7 |
| 20260506174512 | 41 | 360 | 9.0 | 14.0 | 0.00 | 0.00 | 0.00 | 91 | 1019.6 |
| 20260506173012 | 41 | 360 | 10.0 | 15.0 | 0.00 | 0.00 | 0.00 | 91 | 1019.6 |
| 20260506171512 | 41 | 104 | 8.0 | 12.0 | 0.00 | 0.00 | 0.00 | 92 | 1019.2 |
| 20260506170009 | 40 | 79 | 9.0 | 14.0 | 0.00 | 0.00 | 0.00 | 91 | 1019.1 |
| 20260506164508 | 40 | 100 | 8.0 | 12.0 | 0.00 | 0.00 | 0.00 | 91 | 1019.2 |
| 20260506163017 | 40 | 86 | 6.0 | 11.0 | 0.00 | 0.00 | 0.00 | 90 | 1018.9 |
| 20260506161504 | 40 | 108 | 7.0 | 12.0 | 0.00 | 0.00 | 0.00 | 90 | 1019.0 |
| 20260506160011 | 40 | 74 | 7.0 | 12.0 | 0.00 | 0.00 | 0.00 | 89 | 1018.9 |
| 20260506154628 | 40 | 94 | 7.0 | 11.0 | 0.00 | 0.00 | 0.00 | 89 | 1018.3 |
| 20260506153110 | 40 | 92 | 7.0 | 11.0 | 0.00 | 0.00 | 0.00 | 88 | 1018.3 |
| 20260506151600 | 40 | 111 | 8.0 | 11.0 | 0.00 | 0.00 | 0.00 | 87 | 1018.0 |
| 20260506144557 | 40 | 80 | 8.0 | 12.0 | 0.00 | 0.00 | 0.00 | 86 | 1018.0 |
| 20260506143105 | 40 | 92 | 8.0 | 13.0 | 0.00 | 0.00 | 0.00 | 85 | 1017.9 |
| 20260506141554 | 40 | 113 | 10.0 | 14.0 | 0.00 | 0.00 | 0.00 | 84 | 1017.5 |
| 20260506140058 | 41 | 115 | 10.0 | 15.0 | 0.00 | 0.00 | 0.00 | 83 | 1017.5 |
| 20260506134554 | 41 | 98 | 9.0 | 12.0 | 0.00 | 0.00 | 0.00 | 82 | 1017.8 |
| 20260506133053 | 41 | 101 | 8.0 | 12.0 | 0.00 | 0.00 | 0.00 | 82 | 1018.0 |
| 20260506131551 | 41 | 76 | 7.0 | 12.0 | 0.00 | 0.00 | 0.00 | 81 | 1017.9 |
| 20260506130050 | 40 | 97 | 7.0 | 13.0 | 0.00 | 0.00 | 0.00 | 81 | 1017.4 |
| 20260506124549 | 40 | 123 | 10.0 | 14.0 | 0.00 | 0.00 | 0.00 | 81 | 1017.2 |
| 20260506123048 | 40 | 119 | 11.0 | 16.0 | 0.00 | 0.00 | 0.00 | 80 | 1016.9 |
| 20260506121546 | 40 | 125 | 10.0 | 18.0 | 0.00 | 0.00 | 0.00 | 80 | 1016.4 |
| 20260506120055 | 40 | 121 | 14.0 | 19.0 | 0.00 | 0.00 | 0.00 | 80 | 1016.9 |
| 20260506114552 | 40 | 123 | 16.0 | 25.0 | 0.00 | 0.00 | 0.00 | 81 | 1016.1 |
| 20260506113041 | 40 | 116 | 14.0 | 19.0 | 0.00 | 0.00 | 0.00 | 81 | 1015.4 |
| 20260506111542 | 40 | 129 | 11.0 | 16.0 | 0.00 | 0.00 | 0.00 | 82 | 1015.9 |
| 20260506110039 | 40 | 129 | 10.0 | 16.0 | 0.00 | 0.00 | 0.00 | 83 | 1016.4 |
| 20260506104538 | 41 | 117 | 9.0 | 14.0 | 0.00 | 0.00 | 0.00 | 84 | 1015.6 |
| 20260506103035 | 41 | 108 | 9.0 | 14.0 | 0.00 | 0.00 | 0.00 | 83 | 1015.3 |
| 20260506101534 | 41 | 92 | 9.0 | 14.0 | 0.00 | 0.00 | 0.00 | 83 | 1015.1 |
| 20260506100133 | 41 | 90 | 9.0 | 14.0 | 0.00 | 0.00 | 0.00 | 82 | 1014.6 |
| 20260506094541 | 41 | 97 | 9.0 | 15.0 | 0.00 | 0.00 | 0.00 | 80 | 1014.4 |
| 20260506093032 | 42 | 99 | 8.0 | 16.0 | 0.00 | 0.00 | 0.00 | 79 | 1014.6 |
| 20260506091531 | 42 | 91 | 11.0 | 15.0 | 0.00 | 0.00 | 0.00 | 79 | 1014.7 |
| 20260506090029 | 42 | 80 | 9.0 | 14.0 | 0.00 | 0.00 | 0.00 | 80 | 1014.7 |
| 20260506084529 | 42 | 72 | 9.0 | 16.0 | 0.00 | 0.00 | 0.00 | 81 | 1014.5 |
| 20260506083027 | 42 | 69 | 9.0 | 12.0 | 0.00 | 0.00 | 0.00 | 82 | 1013.8 |
| 20260506081525 | 42 | 81 | 9.0 | 13.0 | 0.00 | 0.00 | 0.00 | 82 | 1013.8 |
| 20260506073018 | 40 | 41 | 4.0 | 6.0 | 0.00 | 0.00 | 0.00 | 83 | 1014.3 |
| 20260506071516 | 40 | 360 | 3.0 | 10.0 | 0.00 | 0.00 | 0.00 | 83 | 1014.2 |
| 20260506061514 | 38 | 120 | 5.0 | 9.0 | 0.00 | 0.00 | 0.00 | 84 | 1013.5 |
| 20260506044551 | 39 | 86 | 4.0 | 6.0 | 0.00 | 0.00 | 0.00 | 77 | 1012.2 |
| 20260506043044 | 41 | 360 | 4.0 | 6.0 | 0.00 | 0.00 | 0.00 | 77 | 1012.8 |
| 20260506041544 | 42 | 44 | 5.0 | 9.0 | 0.00 | 0.00 | 0.00 | 76 | 1012.6 |
| 20260506040056 | 42 | 50 | 5.0 | 7.0 | 0.00 | 0.00 | 0.00 | 76 | 1012.8 |
| 20260506034538 | 42 | 61 | 5.0 | 10.0 | 0.00 | 0.00 | 0.00 | 76 | 1012.2 |
| 20260506033034 | 42 | 79 | 7.0 | 11.0 | 0.00 | 0.00 | 0.00 | 75 | 1010.8 |
| 20260506031542 | 42 | 97 | 8.0 | 11.0 | 0.00 | 0.00 | 0.00 | 74 | 1010.0 |
| 20260506030026 | 43 | 360 | 7.0 | 11.0 | 0.00 | 0.00 | 0.00 | 72 | 1009.9 |
| 20260506024526 | 44 | 360 | 6.0 | 12.0 | 0.00 | 0.00 | 0.00 | 70 | 1009.6 |
| 20260506023021 | 45 | 13 | 8.0 | 11.0 | 0.00 | 0.00 | 0.00 | 68 | 1009.5 |
| 20260506021517 | 46 | 82 | 8.0 | 13.0 | 0.00 | 0.00 | 0.00 | 67 | 1009.5 |
| 20260506020013 | 47 | 60 | 9.0 | 13.0 | 0.00 | 0.00 | 0.00 | 65 | 1009.1 |